THOR AGENA B DEB, 2092

Orbit data source: Space-Track

THOR AGENA B DEB, 2092 is space debris in LEO originally from a launch on Mon, 29 Nov 1965 UTC launched from the Air Force Western Test Range (AFWTR). Debris objects in space refer to the collection of defunct objects orbiting the Earth. Examples of debris include non-operational satellites, rocket bodies, and fragments generated from explosions, collisions, or faulty payload assembly.

Loading next visibility...
Identifier
2092, 1965-098H
Orbit
LEO
Country
Flag of USUS
Related business
Manufacturer
Unknown
Mission
Spacecraft
Bus & Motor
Unknown
Mass
~1 kg wet, ~1 kg dry
Launch date (UTC)
1965-11-29 (60 years ago)
Launch vehicle
Unknown
Launch site
Air Force Western Test Range (AFWTR)
Object type
Payload
Rocket body
Debris
Shape & HBR
Ann Cyl, 0.1 m
Radar Cross Section
0.031 m², Small (<0.1 m²)

Expand to show TLE details & history
Last TLE update: 14 hours ago

TLE from 14 hours ago
0 THOR AGENA B DEB
1 02092U 65098H   25261.92647704  .00001525  00000-0  50410-3 0  9992
2 02092  79.8617 232.5846 1298632 303.6432  44.7248 12.34463563646940
Epoch: 2025-09-18T22:14Z
TLE epoch observation values (Epoch: 2025-09-18T22:14:07.616Z)
Latitude
0.00002°
Longitude
-99.02819°
Altitude
879.023 km
Speed
7.713 km/s
True Right ascension
15h 30m 20s
True Declination
0° 00' 00"
Sunlit
Object was in daylight at epoch
Visualization orbit readout
Latitude
Unknown
Longitude
Unknown
Altitude
Unknown
Speed
Unknown
Apparent Right ascension
Unknown
Apparent Declination
Unknown
Sunlit
N/A
Visualization observer readout
Local Sidereal Time
05:25:54
Azimuth
Unknown
Elevation
Unknown
Doppler factor
Unknown
Orbital elements
Apogee altitude
2,554.236 km
Perigee altitude
500.914 km
Semi-major axis
7,905.712 km
Eccentricity
0.12986
Inclination
79.8617°
RAAN
232.5846°
Arg. of periapsis
303.6432°
True anomaly
56.46988°
Mean anomaly
44.7248°
Eccentric anomaly
50.46311°
Mean motion
3.08768 °/min
Orbital period
116.59 mins
BSTAR
0.0005041
Loading maneuver chart data...
Computing Atmospheric mass density...
Loading historical data...
Loading historical data...
Loading historical data...
Loading historical data...
Loading historical data...
Loading historical data...
Loading historical data...

Documentation

Showing up to 5 results
|